Year,Month,Day,Hour,Minute,Value (Times are PST for temperature in C)
2014,10,02,00,00,13.50
2014,10,02,00,01,13.50
2014,10,02,00,02,13.40
2014,10,02,00,03,13.40
2014,10,02,00,04,13.40
2014,10,02,00,05,13.40
2014,10,02,00,06,13.40
2014,10,02,00,07,13.40
2014,10,02,00,08,13.40
2014,10,02,00,09,13.40
2014,10,02,00,10,13.40
2014,10,02,00,11,13.40
2014,10,02,00,12,13.40
2014,10,02,00,13,13.40
2014,10,02,00,14,13.40
2014,10,02,00,15,13.40
2014,10,02,00,16,13.40
2014,10,02,00,17,13.40
2014,10,02,00,18,13.40
2014,10,02,00,19,13.40
2014,10,02,00,20,13.40
2014,10,02,00,21,13.40
2014,10,02,00,22,13.40
2014,10,02,00,23,13.40
2014,10,02,00,24,13.40
2014,10,02,00,25,13.30
2014,10,02,00,26,13.30
2014,10,02,00,27,13.30
2014,10,02,00,28,13.30
2014,10,02,00,29,13.30
2014,10,02,00,30,13.30
2014,10,02,00,31,13.30
2014,10,02,00,32,13.30
2014,10,02,00,33,13.30
2014,10,02,00,34,13.30
2014,10,02,00,35,13.30
2014,10,02,00,36,13.30
2014,10,02,00,37,13.30
2014,10,02,00,38,13.30
2014,10,02,00,39,13.30
2014,10,02,00,40,13.30
2014,10,02,00,41,13.30
2014,10,02,00,42,13.30
2014,10,02,00,43,13.30
2014,10,02,00,44,13.30
2014,10,02,00,45,13.30
2014,10,02,00,46,13.30
2014,10,02,00,47,13.30
2014,10,02,00,48,13.30
2014,10,02,00,49,13.30
2014,10,02,00,50,13.30
2014,10,02,00,51,13.30
2014,10,02,00,52,13.30
2014,10,02,00,53,13.30
2014,10,02,00,54,13.30
2014,10,02,00,55,13.30
2014,10,02,00,56,13.30
2014,10,02,00,57,13.30
2014,10,02,00,58,13.30
2014,10,02,00,59,13.30
2014,10,02,01,00,13.30
2014,10,02,01,01,13.30
2014,10,02,01,02,13.30
2014,10,02,01,03,13.30
2014,10,02,01,04,13.20
2014,10,02,01,05,13.20
2014,10,02,01,06,13.20
2014,10,02,01,07,13.20
2014,10,02,01,08,13.20
2014,10,02,01,09,13.20
2014,10,02,01,10,13.20
2014,10,02,01,11,13.20
2014,10,02,01,12,13.20
2014,10,02,01,13,13.20
2014,10,02,01,14,13.20
2014,10,02,01,15,13.20
2014,10,02,01,16,13.20
2014,10,02,01,17,13.20
2014,10,02,01,18,13.10
2014,10,02,01,19,13.10
2014,10,02,01,20,13.10
2014,10,02,01,21,13.10
2014,10,02,01,22,13.10
2014,10,02,01,23,13.10
2014,10,02,01,24,13.10
2014,10,02,01,25,13.10
2014,10,02,01,26,13.10
2014,10,02,01,27,13.00
2014,10,02,01,28,13.00
2014,10,02,01,29,13.00
2014,10,02,01,30,13.00
2014,10,02,01,31,13.00
2014,10,02,01,32,12.90
2014,10,02,01,33,12.90
2014,10,02,01,34,12.90
2014,10,02,01,35,12.90
2014,10,02,01,36,12.90
2014,10,02,01,37,12.90
2014,10,02,01,38,12.90
2014,10,02,01,39,12.90
2014,10,02,01,40,12.90
2014,10,02,01,41,12.90
2014,10,02,01,42,12.90
2014,10,02,01,43,12.80
2014,10,02,01,44,12.80
2014,10,02,01,45,12.80
2014,10,02,01,46,12.80
2014,10,02,01,47,12.70
2014,10,02,01,48,12.70
2014,10,02,01,49,12.70
2014,10,02,01,50,12.60
2014,10,02,01,51,12.60
2014,10,02,01,52,12.60
2014,10,02,01,53,12.50
2014,10,02,01,54,12.50
2014,10,02,01,55,12.40
2014,10,02,01,56,12.40
2014,10,02,01,57,12.40
2014,10,02,01,58,12.40
2014,10,02,01,59,12.30
2014,10,02,02,00,12.30
2014,10,02,02,01,12.30
2014,10,02,02,02,12.30
2014,10,02,02,03,12.30
2014,10,02,02,04,12.30
2014,10,02,02,05,12.30
2014,10,02,02,06,12.30
2014,10,02,02,07,12.30
2014,10,02,02,08,12.30
2014,10,02,02,09,12.30
2014,10,02,02,10,12.30
2014,10,02,02,11,12.30
2014,10,02,02,12,12.30
2014,10,02,02,13,12.30
2014,10,02,02,14,12.30
2014,10,02,02,15,12.30
2014,10,02,02,16,12.30
2014,10,02,02,17,12.40
2014,10,02,02,18,12.40
2014,10,02,02,19,12.40
2014,10,02,02,20,12.40
2014,10,02,02,21,12.40
2014,10,02,02,22,12.40
2014,10,02,02,23,12.40
2014,10,02,02,24,12.40
2014,10,02,02,25,12.40
2014,10,02,02,26,12.40
2014,10,02,02,27,12.40
2014,10,02,02,28,12.40
2014,10,02,02,29,12.40
2014,10,02,02,30,12.40
2014,10,02,02,31,12.30
2014,10,02,02,32,12.30
2014,10,02,02,33,12.30
2014,10,02,02,34,12.30
2014,10,02,02,35,12.30
2014,10,02,02,36,12.30
2014,10,02,02,37,12.30
2014,10,02,02,38,12.30
2014,10,02,02,39,12.20
2014,10,02,02,40,12.20
2014,10,02,02,41,12.20
2014,10,02,02,42,12.20
2014,10,02,02,43,12.20
2014,10,02,02,44,12.20
2014,10,02,02,45,12.20
2014,10,02,02,46,12.20
2014,10,02,02,47,12.20
2014,10,02,02,48,12.20
2014,10,02,02,49,12.20
2014,10,02,02,50,12.20
2014,10,02,02,51,12.20
2014,10,02,02,52,12.10
2014,10,02,02,53,12.10
2014,10,02,02,54,12.10
2014,10,02,02,55,12.10
2014,10,02,02,56,12.10
2014,10,02,02,57,12.10
2014,10,02,02,58,12.10
2014,10,02,02,59,12.10
2014,10,02,03,00,12.00
2014,10,02,03,01,12.00
2014,10,02,03,02,12.00
2014,10,02,03,03,11.90
2014,10,02,03,04,11.90
2014,10,02,03,05,11.90
2014,10,02,03,06,11.90
2014,10,02,03,07,11.80
2014,10,02,03,08,11.80
2014,10,02,03,09,11.80
2014,10,02,03,10,11.70
2014,10,02,03,11,11.70
2014,10,02,03,12,11.60
2014,10,02,03,13,11.60
2014,10,02,03,14,11.60
2014,10,02,03,15,11.50
2014,10,02,03,16,11.50
2014,10,02,03,17,11.50
2014,10,02,03,18,11.40
2014,10,02,03,19,11.40
2014,10,02,03,20,11.30
2014,10,02,03,21,11.30
2014,10,02,03,22,11.30
2014,10,02,03,23,11.20
2014,10,02,03,24,11.20
2014,10,02,03,25,11.20
2014,10,02,03,26,11.20
2014,10,02,03,27,11.10
2014,10,02,03,28,11.10
2014,10,02,03,29,11.10
2014,10,02,03,30,11.00
2014,10,02,03,31,11.00
2014,10,02,03,32,10.90
2014,10,02,03,33,10.90
2014,10,02,03,34,10.90
2014,10,02,03,35,10.90
2014,10,02,03,36,10.80
2014,10,02,03,37,10.80
2014,10,02,03,38,10.80
2014,10,02,03,39,10.80
2014,10,02,03,40,10.80
2014,10,02,03,41,10.70
2014,10,02,03,42,10.70
2014,10,02,03,43,10.70
2014,10,02,03,44,10.70
2014,10,02,03,45,10.70
2014,10,02,03,46,10.70
2014,10,02,03,47,10.70
2014,10,02,03,48,10.60
2014,10,02,03,49,10.60
2014,10,02,03,50,10.60
2014,10,02,03,51,10.60
2014,10,02,03,52,10.60
2014,10,02,03,53,10.50
2014,10,02,03,54,10.50
2014,10,02,03,55,10.50
2014,10,02,03,56,10.40
2014,10,02,03,57,10.40
2014,10,02,03,58,10.40
2014,10,02,03,59,10.40
2014,10,02,04,00,10.40
2014,10,02,04,01,10.30
2014,10,02,04,02,10.30
2014,10,02,04,03,10.30
2014,10,02,04,04,10.30
2014,10,02,04,05,10.30
2014,10,02,04,06,10.20
2014,10,02,04,07,10.20
2014,10,02,04,08,10.20
2014,10,02,04,09,10.20
2014,10,02,04,10,10.20
2014,10,02,04,11,10.20
2014,10,02,04,12,10.10
2014,10,02,04,13,10.10
2014,10,02,04,14,10.10
2014,10,02,04,15,10.10
2014,10,02,04,16,10.10
2014,10,02,04,17,10.10
2014,10,02,04,18,10.10
2014,10,02,04,19,10.00
2014,10,02,04,20,10.00
2014,10,02,04,21,10.00
2014,10,02,04,22,10.00
2014,10,02,04,23,10.00
2014,10,02,04,24,10.00
2014,10,02,04,25,10.00
2014,10,02,04,26,10.00
2014,10,02,04,27,10.00
2014,10,02,04,28,9.90
2014,10,02,04,29,9.90
2014,10,02,04,30,9.90
2014,10,02,04,31,9.90
2014,10,02,04,32,9.90
2014,10,02,04,33,9.90
2014,10,02,04,34,9.90
2014,10,02,04,35,9.90
2014,10,02,04,36,9.90
2014,10,02,04,37,9.90
2014,10,02,04,38,9.90
2014,10,02,04,39,9.90
2014,10,02,04,40,9.90
2014,10,02,04,41,9.90
2014,10,02,04,42,9.90
2014,10,02,04,43,9.90
2014,10,02,04,44,9.80
2014,10,02,04,45,9.80
2014,10,02,04,46,9.80
2014,10,02,04,47,9.80
2014,10,02,04,48,9.80
2014,10,02,04,49,9.80
2014,10,02,04,50,9.80
2014,10,02,04,51,9.80
2014,10,02,04,52,9.80
2014,10,02,04,53,9.80
2014,10,02,04,54,9.80
2014,10,02,04,55,9.80
2014,10,02,04,56,9.80
2014,10,02,04,57,9.80
2014,10,02,04,58,9.80
2014,10,02,04,59,9.80
2014,10,02,05,00,9.80
2014,10,02,05,01,9.80
2014,10,02,05,02,9.80
2014,10,02,05,03,9.80
2014,10,02,05,04,9.80
2014,10,02,05,05,9.80
2014,10,02,05,06,9.70
2014,10,02,05,07,9.70
2014,10,02,05,08,9.70
2014,10,02,05,09,9.70
2014,10,02,05,10,9.70
2014,10,02,05,11,9.60
2014,10,02,05,12,9.60
2014,10,02,05,13,9.60
2014,10,02,05,14,9.60
2014,10,02,05,15,9.60
2014,10,02,05,16,9.50
2014,10,02,05,17,9.50
2014,10,02,05,18,9.50
2014,10,02,05,19,9.40
2014,10,02,05,20,9.40
2014,10,02,05,21,9.40
2014,10,02,05,22,9.40
2014,10,02,05,23,9.40
2014,10,02,05,24,9.40
2014,10,02,05,25,9.30
2014,10,02,05,26,9.30
2014,10,02,05,27,9.30
2014,10,02,05,28,9.30
2014,10,02,05,29,9.30
2014,10,02,05,30,9.30
2014,10,02,05,31,9.30
2014,10,02,05,32,9.20
2014,10,02,05,33,9.20
2014,10,02,05,34,9.20
2014,10,02,05,35,9.20
2014,10,02,05,36,9.20
2014,10,02,05,37,9.20
2014,10,02,05,38,9.20
2014,10,02,05,39,9.20
2014,10,02,05,40,9.10
2014,10,02,05,41,9.10
2014,10,02,05,42,9.10
2014,10,02,05,43,9.10
2014,10,02,05,44,9.10
2014,10,02,05,45,9.00
2014,10,02,05,46,9.00
2014,10,02,05,47,9.00
2014,10,02,05,48,8.90
2014,10,02,05,49,8.90
2014,10,02,05,50,8.90
2014,10,02,05,51,8.90
2014,10,02,05,52,8.90
2014,10,02,05,53,8.90
2014,10,02,05,54,8.90
2014,10,02,05,55,8.90
2014,10,02,05,56,8.90
2014,10,02,05,57,8.90
2014,10,02,05,58,8.90
2014,10,02,05,59,8.80
2014,10,02,06,00,8.80
2014,10,02,06,01,8.80
2014,10,02,06,02,8.80
2014,10,02,06,03,8.80
2014,10,02,06,04,8.80
2014,10,02,06,05,8.80
2014,10,02,06,06,8.80
2014,10,02,06,07,8.80
2014,10,02,06,08,8.80
2014,10,02,06,09,8.80
2014,10,02,06,10,8.80
2014,10,02,06,11,8.80
2014,10,02,06,12,8.80
2014,10,02,06,13,8.80
2014,10,02,06,14,8.80
2014,10,02,06,15,8.80
2014,10,02,06,16,8.80
2014,10,02,06,17,8.80
2014,10,02,06,18,8.80
2014,10,02,06,19,8.80
2014,10,02,06,20,8.80
2014,10,02,06,21,8.80
2014,10,02,06,22,8.80
2014,10,02,06,23,8.80
2014,10,02,06,24,8.80
2014,10,02,06,25,8.80
2014,10,02,06,26,8.80
2014,10,02,06,27,8.80
2014,10,02,06,28,8.80
2014,10,02,06,29,8.80
2014,10,02,06,30,8.80
2014,10,02,06,31,8.80
2014,10,02,06,32,8.80
2014,10,02,06,33,8.80
2014,10,02,06,34,8.80
2014,10,02,06,35,8.80
2014,10,02,06,36,8.80
2014,10,02,06,37,8.80
2014,10,02,06,38,8.80
2014,10,02,06,39,8.80
2014,10,02,06,40,8.80
2014,10,02,06,41,8.80
2014,10,02,06,42,8.80
2014,10,02,06,43,8.80
2014,10,02,06,44,8.80
2014,10,02,06,45,8.80
2014,10,02,06,46,8.80
2014,10,02,06,47,8.80
2014,10,02,06,48,8.80
2014,10,02,06,49,8.80
2014,10,02,06,50,8.80
2014,10,02,06,51,8.80
2014,10,02,06,52,8.80
2014,10,02,06,53,8.80
2014,10,02,06,54,8.80
2014,10,02,06,55,8.80
2014,10,02,06,56,8.80
2014,10,02,06,57,8.80
2014,10,02,06,58,8.80
2014,10,02,06,59,8.80
2014,10,02,07,00,8.80
2014,10,02,07,01,8.80
2014,10,02,07,02,8.80
2014,10,02,07,03,8.80
2014,10,02,07,04,8.80
2014,10,02,07,05,8.80
2014,10,02,07,06,8.90
2014,10,02,07,07,8.90
2014,10,02,07,08,8.90
2014,10,02,07,09,8.90
2014,10,02,07,10,8.90
2014,10,02,07,11,8.90
2014,10,02,07,12,8.90
2014,10,02,07,13,8.90
2014,10,02,07,14,8.90
2014,10,02,07,15,8.90
2014,10,02,07,16,9.00
2014,10,02,07,17,9.00
2014,10,02,07,18,9.00
2014,10,02,07,19,9.00
2014,10,02,07,20,9.00
2014,10,02,07,21,9.10
2014,10,02,07,22,9.10
2014,10,02,07,23,9.10
2014,10,02,07,24,9.10
2014,10,02,07,25,9.10
2014,10,02,07,26,9.10
2014,10,02,07,27,9.10
2014,10,02,07,28,9.10
2014,10,02,07,29,9.10
2014,10,02,07,30,9.10
2014,10,02,07,31,9.10
2014,10,02,07,32,9.10
2014,10,02,07,33,9.10
2014,10,02,07,34,9.10
2014,10,02,07,35,9.10
2014,10,02,07,36,9.10
2014,10,02,07,37,9.10
2014,10,02,07,38,9.10
2014,10,02,07,39,9.10
2014,10,02,07,40,9.10
2014,10,02,07,41,9.10
2014,10,02,07,42,9.10
2014,10,02,07,43,9.10
2014,10,02,07,44,9.10
2014,10,02,07,45,9.10
2014,10,02,07,46,9.10
2014,10,02,07,47,9.20
2014,10,02,07,48,9.20
2014,10,02,07,49,9.20
2014,10,02,07,50,9.20
2014,10,02,07,51,9.20
2014,10,02,07,52,9.20
2014,10,02,07,53,9.20
2014,10,02,07,54,9.20
2014,10,02,07,55,9.20
2014,10,02,07,56,9.20
2014,10,02,07,57,9.20
2014,10,02,07,58,9.30
2014,10,02,07,59,9.30
2014,10,02,08,00,9.30
2014,10,02,08,01,9.30
2014,10,02,08,02,9.30
2014,10,02,08,03,9.40
2014,10,02,08,04,9.40
2014,10,02,08,05,9.40
2014,10,02,08,06,9.40
2014,10,02,08,07,9.50
2014,10,02,08,08,9.50
2014,10,02,08,09,9.60
2014,10,02,08,10,9.60
2014,10,02,08,11,9.60
2014,10,02,08,12,9.70
2014,10,02,08,13,9.70
2014,10,02,08,14,9.80
2014,10,02,08,15,9.80
2014,10,02,08,16,9.90
2014,10,02,08,17,9.90
2014,10,02,08,18,10.00
2014,10,02,08,19,10.00
2014,10,02,08,20,10.10
2014,10,02,08,21,10.10
2014,10,02,08,22,10.10
2014,10,02,08,23,10.20
2014,10,02,08,24,10.20
2014,10,02,08,25,10.30
2014,10,02,08,26,10.30
2014,10,02,08,27,10.30
2014,10,02,08,28,10.30
2014,10,02,08,29,10.40
2014,10,02,08,30,10.40
2014,10,02,08,31,10.50
2014,10,02,08,32,10.50
2014,10,02,08,33,10.60
2014,10,02,08,34,10.60
2014,10,02,08,35,10.60
2014,10,02,08,36,10.70
2014,10,02,08,37,10.80
2014,10,02,08,38,10.80
2014,10,02,08,39,10.80
2014,10,02,08,40,10.90
2014,10,02,08,41,11.00
2014,10,02,08,42,11.00
2014,10,02,08,43,11.10
2014,10,02,08,44,11.10
2014,10,02,08,45,11.20
2014,10,02,08,46,11.20
2014,10,02,08,47,11.30
2014,10,02,08,48,11.30
2014,10,02,08,49,11.40
2014,10,02,08,50,11.50
2014,10,02,08,51,11.50
2014,10,02,08,52,11.60
2014,10,02,08,53,11.70
2014,10,02,08,54,11.70
2014,10,02,08,55,11.80
2014,10,02,08,56,11.80
2014,10,02,08,57,11.90
2014,10,02,08,58,11.90
2014,10,02,08,59,12.00
2014,10,02,09,00,12.10
2014,10,02,09,01,12.10
2014,10,02,09,02,12.20
2014,10,02,09,03,12.20
2014,10,02,09,04,12.30
2014,10,02,09,05,12.30
2014,10,02,09,06,12.40
2014,10,02,09,07,12.40
2014,10,02,09,08,12.50
2014,10,02,09,09,12.50
2014,10,02,09,10,12.60
2014,10,02,09,11,12.60
2014,10,02,09,12,12.80
2014,10,02,09,13,12.90
2014,10,02,09,14,13.00
2014,10,02,09,15,13.10
2014,10,02,09,16,13.20
2014,10,02,09,17,13.30
2014,10,02,09,18,13.40
2014,10,02,09,19,13.50
2014,10,02,09,20,13.50
2014,10,02,09,21,13.60
2014,10,02,09,22,13.60
2014,10,02,09,23,13.60
2014,10,02,09,24,13.70
2014,10,02,09,25,13.70
2014,10,02,09,26,13.70
2014,10,02,09,27,13.80
2014,10,02,09,28,13.80
2014,10,02,09,29,13.80
2014,10,02,09,30,13.90
2014,10,02,09,31,13.90
2014,10,02,09,32,13.90
2014,10,02,09,33,13.90
2014,10,02,09,34,14.00
2014,10,02,09,35,14.00
2014,10,02,09,36,14.10
2014,10,02,09,37,14.10
2014,10,02,09,38,14.10
2014,10,02,09,39,14.10
2014,10,02,09,40,14.00
2014,10,02,09,41,14.00
2014,10,02,09,42,14.00
2014,10,02,09,43,14.00
2014,10,02,09,44,13.90
2014,10,02,09,45,13.90
2014,10,02,09,46,13.90
2014,10,02,09,47,13.90
2014,10,02,09,48,13.90
2014,10,02,09,49,13.90
2014,10,02,09,50,13.90
2014,10,02,09,51,13.90
2014,10,02,09,52,13.90
2014,10,02,09,53,13.90
2014,10,02,09,54,14.00
2014,10,02,09,55,14.00
2014,10,02,09,56,14.00
2014,10,02,09,57,14.10
2014,10,02,09,58,14.10
2014,10,02,09,59,14.20
2014,10,02,10,00,14.10
2014,10,02,10,01,14.10
2014,10,02,10,02,14.00
2014,10,02,10,03,14.00
2014,10,02,10,04,14.00
2014,10,02,10,05,14.00
2014,10,02,10,06,13.90
2014,10,02,10,07,13.90
2014,10,02,10,08,13.90
2014,10,02,10,09,13.90
2014,10,02,10,10,13.90
2014,10,02,10,11,13.80
2014,10,02,10,12,13.80
2014,10,02,10,13,13.70
2014,10,02,10,14,13.80
2014,10,02,10,15,13.80
2014,10,02,10,16,13.80
2014,10,02,10,17,13.90
2014,10,02,10,18,13.90
2014,10,02,10,19,14.10
2014,10,02,10,20,14.10
2014,10,02,10,21,14.20
2014,10,02,10,22,14.30
2014,10,02,10,23,14.30
2014,10,02,10,24,14.50
2014,10,02,10,25,14.50
2014,10,02,10,26,14.60
2014,10,02,10,27,14.60
2014,10,02,10,28,14.60
2014,10,02,10,29,14.50
2014,10,02,10,30,14.40
2014,10,02,10,31,14.40
2014,10,02,10,32,14.50
2014,10,02,10,33,14.50
2014,10,02,10,34,14.50
2014,10,02,10,35,14.50
2014,10,02,10,36,14.50
2014,10,02,10,37,14.50
2014,10,02,10,38,14.40
2014,10,02,10,39,14.40
2014,10,02,10,40,14.40
2014,10,02,10,41,14.40
2014,10,02,10,42,14.40
2014,10,02,10,43,14.30
2014,10,02,10,44,14.30
2014,10,02,10,45,14.10
2014,10,02,10,46,14.00
2014,10,02,10,47,14.00
2014,10,02,10,48,13.90
2014,10,02,10,49,13.80
2014,10,02,10,50,13.70
2014,10,02,10,51,13.60
2014,10,02,10,52,13.50
2014,10,02,10,53,13.50
2014,10,02,10,54,13.40
2014,10,02,10,55,13.40
2014,10,02,10,56,13.50
2014,10,02,10,57,13.60
2014,10,02,10,58,13.70
2014,10,02,10,59,13.80
2014,10,02,11,00,13.80
2014,10,02,11,01,13.80
2014,10,02,11,02,13.80
2014,10,02,11,03,13.80
2014,10,02,11,04,13.80
2014,10,02,11,05,13.80
2014,10,02,11,06,13.80
2014,10,02,11,07,13.70
2014,10,02,11,08,13.70
2014,10,02,11,09,13.60
2014,10,02,11,10,13.60
2014,10,02,11,11,13.60
2014,10,02,11,12,13.60
2014,10,02,11,13,13.60
2014,10,02,11,14,13.70
2014,10,02,11,15,13.80
2014,10,02,11,16,13.90
2014,10,02,11,17,14.00
2014,10,02,11,18,14.00
2014,10,02,11,19,14.00
2014,10,02,11,20,14.00
2014,10,02,11,21,14.00
2014,10,02,11,22,14.00
2014,10,02,11,23,14.00
2014,10,02,11,24,14.10
2014,10,02,11,25,14.10
2014,10,02,11,26,14.20
2014,10,02,11,27,14.10
2014,10,02,11,28,14.20
2014,10,02,11,29,14.20
2014,10,02,11,30,14.30
2014,10,02,11,31,14.40
2014,10,02,11,32,14.50
2014,10,02,11,33,14.50
2014,10,02,11,34,14.50
2014,10,02,11,35,14.50
2014,10,02,11,36,14.60
2014,10,02,11,37,14.60
2014,10,02,11,38,14.60
2014,10,02,11,39,14.70
2014,10,02,11,40,14.70
2014,10,02,11,41,14.70
2014,10,02,11,42,14.70
2014,10,02,11,43,14.70
2014,10,02,11,44,14.80
2014,10,02,11,45,14.80
2014,10,02,11,46,14.80
2014,10,02,11,47,14.80
2014,10,02,11,48,14.80
2014,10,02,11,49,14.90
2014,10,02,11,50,14.90
2014,10,02,11,51,14.90
2014,10,02,11,52,14.80
2014,10,02,11,53,14.80
2014,10,02,11,54,14.80
2014,10,02,11,55,14.90
2014,10,02,11,56,14.90
2014,10,02,11,57,14.90
2014,10,02,11,58,14.80
2014,10,02,11,59,14.80
2014,10,02,12,00,14.90
2014,10,02,12,01,14.90
2014,10,02,12,02,15.00
2014,10,02,12,03,15.00
2014,10,02,12,04,15.00
2014,10,02,12,05,15.00
2014,10,02,12,06,15.00
2014,10,02,12,07,15.00
2014,10,02,12,08,15.00
2014,10,02,12,09,15.00
2014,10,02,12,10,15.00
2014,10,02,12,11,15.00
2014,10,02,12,12,15.00
2014,10,02,12,13,15.00
2014,10,02,12,14,15.10
2014,10,02,12,15,15.10
2014,10,02,12,16,15.20
2014,10,02,12,17,15.20
2014,10,02,12,18,15.20
2014,10,02,12,19,15.20
2014,10,02,12,20,15.20
2014,10,02,12,21,15.30
2014,10,02,12,22,15.30
2014,10,02,12,23,15.30
2014,10,02,12,24,15.30
2014,10,02,12,25,15.30
2014,10,02,12,26,15.30
2014,10,02,12,27,15.30
2014,10,02,12,28,15.30
2014,10,02,12,29,15.30
2014,10,02,12,30,15.30
2014,10,02,12,31,15.30
2014,10,02,12,32,15.10
2014,10,02,12,33,15.00
2014,10,02,12,34,15.00
2014,10,02,12,35,15.00
2014,10,02,12,36,15.00
2014,10,02,12,37,15.00
2014,10,02,12,38,15.00
2014,10,02,12,39,15.00
2014,10,02,12,40,15.00
2014,10,02,12,41,15.00
2014,10,02,12,42,15.00
2014,10,02,12,43,15.00
2014,10,02,12,44,14.90
2014,10,02,12,45,14.90
2014,10,02,12,46,15.00
2014,10,02,12,47,15.00
2014,10,02,12,48,15.00
2014,10,02,12,49,15.00
2014,10,02,12,50,15.00
2014,10,02,12,51,15.00
2014,10,02,12,52,15.00
2014,10,02,12,53,15.00
2014,10,02,12,54,15.00
2014,10,02,12,55,15.00
2014,10,02,12,56,15.00
2014,10,02,12,57,15.00
2014,10,02,12,58,15.00
2014,10,02,12,59,14.80
2014,10,02,13,00,14.80
2014,10,02,13,01,14.70
2014,10,02,13,02,14.70
2014,10,02,13,03,14.70
2014,10,02,13,04,14.70
2014,10,02,13,05,14.70
2014,10,02,13,06,14.80
2014,10,02,13,07,14.80
2014,10,02,13,08,14.90
2014,10,02,13,09,15.00
2014,10,02,13,10,15.00
2014,10,02,13,11,15.00
2014,10,02,13,12,15.00
2014,10,02,13,13,15.00
2014,10,02,13,14,15.00
2014,10,02,13,15,15.10
2014,10,02,13,16,15.10
2014,10,02,13,17,15.10
2014,10,02,13,18,15.10
2014,10,02,13,19,15.10
2014,10,02,13,20,15.10
2014,10,02,13,21,15.20
2014,10,02,13,22,15.20
2014,10,02,13,23,15.20
2014,10,02,13,24,15.20
2014,10,02,13,25,15.20
2014,10,02,13,26,15.20
2014,10,02,13,27,15.20
2014,10,02,13,28,15.30
2014,10,02,13,29,15.30
2014,10,02,13,30,15.30
2014,10,02,13,31,15.30
2014,10,02,13,32,15.20
2014,10,02,13,33,15.20
2014,10,02,13,34,15.20
2014,10,02,13,35,15.20
2014,10,02,13,36,15.20
2014,10,02,13,37,15.20
2014,10,02,13,38,15.20
2014,10,02,13,39,15.20
2014,10,02,13,40,15.20
2014,10,02,13,41,15.30
2014,10,02,13,42,15.30
2014,10,02,13,43,15.30
2014,10,02,13,44,15.30
2014,10,02,13,45,15.40
2014,10,02,13,46,15.40
2014,10,02,13,47,15.40
2014,10,02,13,48,15.40
2014,10,02,13,49,15.40
2014,10,02,13,50,15.40
2014,10,02,13,51,15.50
2014,10,02,13,52,15.50
2014,10,02,13,53,15.50
2014,10,02,13,54,15.60
2014,10,02,13,55,15.60
2014,10,02,13,56,15.60
2014,10,02,13,57,15.60
2014,10,02,13,58,15.70
2014,10,02,13,59,15.70
2014,10,02,14,00,15.70
2014,10,02,14,01,15.70
2014,10,02,14,02,15.80
2014,10,02,14,03,15.80
2014,10,02,14,04,15.80
2014,10,02,14,05,15.80
2014,10,02,14,06,15.80
2014,10,02,14,07,15.80
2014,10,02,14,08,15.80
2014,10,02,14,09,15.80
2014,10,02,14,10,15.70
2014,10,02,14,11,15.70
2014,10,02,14,12,15.70
2014,10,02,14,13,15.70
2014,10,02,14,14,15.70
2014,10,02,14,15,15.70
2014,10,02,14,16,15.80
2014,10,02,14,17,15.80
2014,10,02,14,18,15.80
2014,10,02,14,19,15.80
2014,10,02,14,20,15.90
2014,10,02,14,21,16.00
2014,10,02,14,22,16.00
2014,10,02,14,23,16.10
2014,10,02,14,24,16.10
2014,10,02,14,25,16.20
2014,10,02,14,26,16.20
2014,10,02,14,27,16.30
2014,10,02,14,28,16.30
2014,10,02,14,29,16.30
2014,10,02,14,30,16.40
2014,10,02,14,31,16.40
2014,10,02,14,32,16.30
2014,10,02,14,33,16.30
2014,10,02,14,34,16.30
2014,10,02,14,35,16.30
2014,10,02,14,36,16.20
2014,10,02,14,37,16.20
2014,10,02,14,38,16.20
2014,10,02,14,39,16.20
2014,10,02,14,40,16.20
2014,10,02,14,41,16.20
2014,10,02,14,42,16.20
2014,10,02,14,43,16.20
2014,10,02,14,44,16.20
2014,10,02,14,45,16.20
2014,10,02,14,46,16.20
2014,10,02,14,47,16.30
2014,10,02,14,48,16.30
2014,10,02,14,49,16.30
2014,10,02,14,50,16.40
2014,10,02,14,51,16.40
2014,10,02,14,52,16.50
2014,10,02,14,53,16.50
2014,10,02,14,54,16.60
2014,10,02,14,55,16.60
2014,10,02,14,56,16.70
2014,10,02,14,57,16.70
2014,10,02,14,58,16.70
2014,10,02,14,59,16.70
2014,10,02,15,00,16.60
2014,10,02,15,01,16.50
2014,10,02,15,02,16.50
2014,10,02,15,03,16.50
2014,10,02,15,04,16.50
2014,10,02,15,05,16.40
2014,10,02,15,06,16.40
2014,10,02,15,07,16.40
2014,10,02,15,08,16.40
2014,10,02,15,09,16.40
2014,10,02,15,10,16.50
2014,10,02,15,11,16.50
2014,10,02,15,12,16.50
2014,10,02,15,13,16.60
2014,10,02,15,14,16.60
2014,10,02,15,15,16.60
2014,10,02,15,16,16.60
2014,10,02,15,17,16.60
2014,10,02,15,18,16.60
2014,10,02,15,19,16.60
2014,10,02,15,20,16.60
2014,10,02,15,21,16.60
2014,10,02,15,22,16.70
2014,10,02,15,23,16.70
2014,10,02,15,24,16.70
2014,10,02,15,25,16.80
2014,10,02,15,26,16.80
2014,10,02,15,27,16.80
2014,10,02,15,28,16.80
2014,10,02,15,29,16.80
2014,10,02,15,30,16.80
2014,10,02,15,31,16.80
2014,10,02,15,32,16.80
2014,10,02,15,33,16.90
2014,10,02,15,34,16.90
2014,10,02,15,35,16.90
2014,10,02,15,36,16.90
2014,10,02,15,37,16.90
2014,10,02,15,38,17.00
2014,10,02,15,39,17.00
2014,10,02,15,40,17.00
2014,10,02,15,41,17.00
2014,10,02,15,42,17.10
2014,10,02,15,43,17.10
2014,10,02,15,44,17.10
2014,10,02,15,45,17.10
2014,10,02,15,46,17.10
2014,10,02,15,47,17.00
2014,10,02,15,48,17.00
2014,10,02,15,49,17.00
2014,10,02,15,50,16.90
2014,10,02,15,51,16.90
2014,10,02,15,52,16.90
2014,10,02,15,53,16.90
2014,10,02,15,54,16.90
2014,10,02,15,55,16.90
2014,10,02,15,56,16.90
2014,10,02,15,57,17.00
2014,10,02,15,58,17.00
2014,10,02,15,59,17.00
2014,10,02,16,00,17.00
2014,10,02,16,01,17.00
2014,10,02,16,02,17.00
2014,10,02,16,03,17.00
2014,10,02,16,04,17.00
2014,10,02,16,05,17.00
2014,10,02,16,06,17.00
2014,10,02,16,07,17.00
2014,10,02,16,08,16.90
2014,10,02,16,09,16.90
2014,10,02,16,10,16.90
2014,10,02,16,11,16.90
2014,10,02,16,12,16.90
2014,10,02,16,13,16.90
2014,10,02,16,14,16.90
2014,10,02,16,15,16.90
2014,10,02,16,16,17.00
2014,10,02,16,17,17.00
2014,10,02,16,18,17.00
2014,10,02,16,19,17.00
2014,10,02,16,20,16.90
2014,10,02,16,21,16.90
2014,10,02,16,22,16.90
2014,10,02,16,23,16.90
2014,10,02,16,24,16.90
2014,10,02,16,25,16.90
2014,10,02,16,26,16.90
2014,10,02,16,27,17.00
2014,10,02,16,28,17.00
2014,10,02,16,29,17.10
2014,10,02,16,30,17.10
2014,10,02,16,31,17.10
2014,10,02,16,32,17.00
2014,10,02,16,33,17.00
2014,10,02,16,34,16.90
2014,10,02,16,35,16.90
2014,10,02,16,36,16.80
2014,10,02,16,37,16.80
2014,10,02,16,38,16.70
2014,10,02,16,39,16.70
2014,10,02,16,40,16.60
2014,10,02,16,41,16.60
2014,10,02,16,42,16.50
2014,10,02,16,43,16.50
2014,10,02,16,44,16.40
2014,10,02,16,45,16.40
2014,10,02,16,46,16.40
2014,10,02,16,47,16.40
2014,10,02,16,48,16.40
2014,10,02,16,49,16.40
2014,10,02,16,50,16.40
2014,10,02,16,51,16.30
2014,10,02,16,52,16.40
2014,10,02,16,53,16.40
2014,10,02,16,54,16.40
2014,10,02,16,55,16.40
2014,10,02,16,56,16.40
2014,10,02,16,57,16.40
2014,10,02,16,58,16.40
2014,10,02,16,59,16.40
2014,10,02,17,00,16.30
2014,10,02,17,01,16.30
2014,10,02,17,02,16.40
2014,10,02,17,03,16.40
2014,10,02,17,04,16.40
2014,10,02,17,05,16.40
2014,10,02,17,06,16.40
2014,10,02,17,07,16.50
2014,10,02,17,08,16.50
2014,10,02,17,09,16.50
2014,10,02,17,10,16.50
2014,10,02,17,11,16.50
2014,10,02,17,12,16.60
2014,10,02,17,13,16.50
2014,10,02,17,14,16.60
2014,10,02,17,15,16.60
2014,10,02,17,16,16.60
2014,10,02,17,17,16.60
2014,10,02,17,18,16.60
2014,10,02,17,19,16.60
2014,10,02,17,20,16.60
2014,10,02,17,21,16.60
2014,10,02,17,22,16.60
2014,10,02,17,23,16.60
2014,10,02,17,24,16.60
2014,10,02,17,25,16.60
2014,10,02,17,26,16.60
2014,10,02,17,27,16.60
2014,10,02,17,28,16.60
2014,10,02,17,29,16.60